Regional Weather Roundup
Issued by NWS

Home | Current Version | Previous Version | Text Only | Print | Product List | Glossary On
Versions: 1 2 3 4 5 6 7 8 9 10 11 12 13 14 15 16 17 18 19 20 21 22 23 24 25 26 27 28 29 30 31 32 33 34 35 36 37 38 39 40 41 42 43 44 45 46 47 48 49 50
000
ASHW40 PHFO 151412
RWRHI

WEATHER ROUNDUP FOR HAWAII
NATIONAL WEATHER SERVICE HONOLULU HI
400 AM HST TUE JUN 15 2021

THIS IS AN AUTOMATED REPORT THAT HAS NOT BEEN QUALITY CONTROLLED.

NOTE..."FAIR" INDICATES FEW OR NO CLOUDS BELOW 12,000 FEET WITH NO
SIGNIFICANT WEATHER AND/OR OBSTRUCTIONS TO VISIBILITY.

* - THESE SITES REPORT LIMITED FIELDS
# - BUOY DATA PROVIDED BY PACIFIC ISLANDS OCEAN OBSERVING SYSTEM.

HIZ001-003-004-029>031-151500-
KAUAI-NIIHAU-

CITY           SKY/WX    TMP DP  RH WIND       PRES   REMARKS
LIHUE APT      MOCLDY    76  69  79 E13       30.08F
PORT ALLEN*      N/A     73 N/A N/A E12         N/A
POIPU*         NOT AVBL
PRINCEVILLE*     N/A     72 N/A N/A S3          N/A
KOKOLE POINT*  NOT AVBL
MOLOAA DAIRY*    N/A     73  68  83 E3          N/A
WAIMEA HTS*    NOT AVBL
PUU OPAE*      NOT AVBL
PUU LUA*       NOT AVBL
MAKAHA RIDGE*  NOT AVBL
$$

HIZ006-007-009>011-032>036-151500-
OAHU-

CITY           SKY/WX    TMP DP  RH WIND       PRES   REMARKS
HONOLULU       CLOUDY    74  63  68 N3        30.06S
KALAELOA       CLOUDY    72  62  71 NE5       30.07S
KANEOHE MCB    MOCLDY    76  65  68 E6        30.04F
WHEELER FIELD  FAIR      66  61  82 NW5       30.09S
BELLOWS*       NOT AVBL
KAHUKU*        NOT AVBL
WHEELER*       NOT AVBL
WAIANAE HARBOR NOT AVBL
DILLINGHAM*      N/A     64  61  88 CALM        N/A
KAHUKU TRN*      N/A     72  64  78 E5G14       N/A
KAWAILOA*      NOT AVBL
KII*             N/A     75  66  73 E12G17      N/A
MAKUA RANGE*     N/A     72  63  73 E5          N/A
OAHU FOREST NW NOT AVBL
SCHOFIELD BRK*   N/A    N/A N/A N/A W3          N/A
SCHOFIELD S*   NOT AVBL
WAIANAE VLY*   NOT AVBL
KUAOKALA*      NOT AVBL
HONOULIUULI*   NOT AVBL
MOKUOLOE IS*   NOT AVBL
PALEHUA*       NOT AVBL
WAIAWA PHB*    NOT AVBL
$$

HIZ037>041-151500-
MOLOKAI-

CITY           SKY/WX    TMP DP  RH WIND       PRES   REMARKS
MOLOKAI AIRPT  MOCLDY    67  62  84 NE8       30.08R
KALAUPAPA      NOT AVBL
MAKAPULAPAI*   NOT AVBL
MOLOKAI 1*     NOT AVBL
PUU ALII*      NOT AVBL
$$

HIZ015-042>044-151500-
LANAI-

CITY           SKY/WX    TMP DP  RH WIND       PRES   REMARKS
LANAI CITY     FAIR      66  32  28 NE6       30.11S
LANAI 1*       NOT AVBL
$$

HIZ016-151500-
KAHOOLAWE-

CITY           SKY/WX    TMP DP  RH WIND       PRES   REMARKS
KAHOOLAWE*     NOT AVBL
HAKIOAWA*      NOT AVBL
HONOKANAIA*    NOT AVBL
KANELOA*         N/A     72  64  78 E17G24    30.11F
KEALIALALO*    NOT AVBL
LUA MAKIKA*    NOT AVBL
$$

HIZ017-018-022-045>050-151500-
MAUI-

CITY           SKY/WX    TMP DP  RH WIND       PRES   REMARKS
KAHULUI        MOCLDY    68  59  73 N7        30.06S
KAPALUA-W MAUI NOT AVBL
HANA AIRPORT   NOT AVBL
HANA*            N/A     68 N/A N/A S3          N/A
HALEAKALA SUMM   N/A    N/A N/A N/A E15         N/A  VSB 0
MAALAEA BAY*   NOT AVBL
HALEAKALA*     NOT AVBL
KAUPO GAP*     NOT AVBL
KULA 1*          N/A     48  18  29 E3          N/A
$$

HIZ023-026-051>054-151500-
BIG ISLAND OF HAWAII COAST AND LOWER SLOPES-

CITY           SKY/WX    TMP DP  RH WIND       PRES   REMARKS
KAILUA KONA    PTCLDY    73  61  65 E5        30.02S
HILO           CLEAR     65  54  67 SW8       30.07F
HONOKAA*       NOT AVBL
KAWAIHAE MWT*  NOT AVBL
KAWAIHAE*        N/A     75 N/A N/A N3          N/A
SOUTH POINT*     N/A     63 N/A N/A NE10        N/A
UPOLU AIRPORT*   N/A     72 N/A N/A E8          N/A
KAMUELA*       NOT AVBL
HAKALAU*         N/A     36  21  55 W5          N/A
KALOKO-HONOKO* NOT AVBL
PALI 2*          N/A     57  50  77 N10G16      N/A
KEALAKOMO*       N/A    N/A N/A N/A N16G26      N/A
KAUPULEHU*     NOT AVBL
KAPAPALA*        N/A     54  48  79 VRB5G10     N/A
LOWER KAHUKU*  NOT AVBL
PUHE CS*       NOT AVBL
PUHO CS*       NOT AVBL
PTA KEAMUKU*   NOT AVBL
WAIKOLOA*      NOT AVBL
$$

HIZ027-028-151500-
BIG ISLAND OF HAWAII INTERIOR AND SUMMMITS-

CITY           SKY/WX    TMP DP  RH WIND       PRES   REMARKS
BRADSHAW FIELD NOT AVBL
MK VISITOR CEN   N/A     50   3  14 N12         N/A
MAUNA KEA*       N/A     32 -11  15 N8          N/A  WCI  25
MAUNA LOA*     NOT AVBL
MAUNA LOA 1*   NOT AVBL
PTA KIPUKA*      N/A     46  46 100 S3          N/A
PTA RANGE 17*    N/A     54  16  22 NE10G17     N/A
PTA WEST*        N/A     48  45  87 E10         N/A
NENE CABIN*    NOT AVBL
AHUMOA*        NOT AVBL
PTA PORTABLE*  NOT AVBL
PUU MALI*        N/A     57   7  13 SE8         N/A
$$

HIC003-151500-
NORTHWEST ISLANDS-

CITY           SKY/WX    TMP DP  RH WIND       PRES   REMARKS
MIDWAY ISLAND  PTCLDY    73  66  78 NE6       30.24S
MIDWAY NOS*    NOT AVBL
FRENCH FRIGATE NOT AVBL
$$

PHZ110>124-180-151500-
BUOY REPORTS

STATION/POSITION TIME  TEMP    WIND        PRES    WAVE   SWELL
                       AIR SEA DIR/SP/G            HT/PER HT/DIR
                 (UTC) (F)     (DEG/KT/KT) (MB)    (FT/S) (FT/D)
BUOY 51101       1350   76      70/ 10/ 12 1019.8F   4/ 8   3/ 90
BUOY 51100       NOT AVBL
BUOY 51002       1350   77      80/ 14/ 17 1015.3F   6/ 8   5/100
BUOY 51003       1350   77      70/ 12/ 16 1016.8F   6/ 7   5/100
BUOY 51004       1350   75      70/ 14/ 16 1015.2F   6/ 8   5/100
WAIMEA BAY#      1357      78                N/A     4/11   2/ 10
MOKAPU POINT#    1356      79                N/A     4/10   2/ 20
LANAI#           1326      80                N/A     3/14   2/190
BARBERS PT#      1356      79                N/A     3/13   2/180
PAUWELA#         1356      77                N/A     5/10   2
HILO#            NOT AVBL
KANEOHE BAY#     NOT AVBL
KANEOHE BAY 2#   NOT AVBL
HANALEI#         1356      79                N/A     5/10   2/ 10
KAHULUI HARBOR   1330   71 79   60/  5/ 10 1017.9F
HONOLULU HARBOR  1330   75 80   60/  2/  4 1018.3F
PEARL HARBOR#    1330      79                N/A     3/ 8   2/150
KILO NALU        NOT AVBL
HILO HARBOR      1330   66 79  210/  2/  4 1017.2F
MOKUOLOE         1336   76 80   80/  6/  9 1018.3F
NAWILIWILI       1330   76 84   50/ 10/ 12 1018.7F
WHOTS BUOY       NOT AVBL
BUOY 51028       NOT AVBL
$$

......................KEY........................................
  SKY/WX - SKY CONDITIONS/PRESENT WEATHER
  TMP    - TEMPERATURE IN FAHRENHEIT
  DWPT   - DEWPOINT IN FAHRENHEIT
  RH     - RELATIVE HUMIDITY IN PERCENT
  WIND   - DIRECTION AND SPEED /MPH FOR ISLANDS...KTS FOR BUOYS/
  PRES   - MEAN SEA LEVEL PRESSURE IN INCHES OF HG
  VSB    - VISIBILITY IN MILES
  HX     - HEAT INDEX
  WCI    - WIND CHILL INDEX
  VRB    - VARIABLE WIND DIRECTION
  N/A    - NOT AVAILABLE



USA.gov is the U.S. government's official web portal to all federal, state and local government web resources and services.